Home   Weather   Offenburg   Past weeks

Flag for Germany Past Weather in Offenburg, Baden-Württemberg, Germany — Yesterday and Last 2 Weeks

Now
41 °F

Light rain. Overcast.


Feels Like: 38 °F
Forecast: 39 / 47 °F
Wind: 5 mph from South

Location: Lahr

Current Time: Feb 28, 2017 at 4:35:59 am

Latest Report: Feb 28, 2017 at 3:00 am


Visibility: 13 mi

Pressure: 29.57 "Hg

Humidity: 88%

Dew Point: 38 °F

Location of OffenburgLocation

Past Weather in Offenburg — Graph

°F

Offenburg Temperature Yesterday

Maximum temperature yesterday: 61 °F (at 3:00 pm)
Minimum temperature yesterday: 34 °F (at 8:00 am)
Average temperature yesterday: 49 °F

High & Low Weather Summary for the Past Weeks

 TemperatureHumidityPressure
High68 °F (Feb 23, 3:00 pm)100% (Feb 13, 8:00 am)30.61 "Hg (Feb 13, 8:00 am)
Low26 °F (Feb 13, 6:00 am)25% (Feb 23, 3:00 pm)29.44 "Hg (Feb 27, 9:00 pm)
Average44 °F79%30.18 "Hg
* Reported Feb 13 3:00 am — Feb 28 3:00 am, Offenburg, Weather by CustomWeather, © 2017

Note: Actual official high and low records may vary slightly from our data, if they occured in-between our weather recording intervals... More about our weather records

Advertising

Offenburg Weather History for the Previous 24 Hours

Scroll right to see more
 ConditionsComfort  
Time TempWeatherWind HumidityBarometerVisibility
3:00 am
Tue, Feb 28
41 °FLight rain. Overcast.5 mph88%29.57 "Hg12 mi
2:00 am42 °FLight rain. Overcast.8 mph86%29.56 "Hg7 mi
12:00 am48 °FLight rain. Overcast.7 mph87%29.50 "Hg5 mi
11:00 pm
Mon, Feb 27
50 °FLight rain. Overcast.9 mph81%29.54 "Hg31 mi
9:00 pm60 °FPassing clouds.13 mph44%29.44 "Hg28 mi
8:00 pm59 °FOvercast.9 mph48%29.47 "Hg22 mi
6:00 pm58 °FOvercast.5 mph51%29.54 "Hg19 mi
5:00 pm60 °FScattered clouds.7 mph45%29.57 "Hg22 mi
3:00 pm61 °FSunny.9 mph44%29.61 "Hg15 mi
2:00 pm60 °FSunny.8 mph48%29.65 "Hg14 mi
12:00 pm56 °FSunny.6 mph55%29.75 "Hg9 mi
11:00 am52 °FSunny.2 mph58%29.80 "Hg25 mi
9:00 am41 °FSunny.2 mph74%29.86 "Hg19 mi
8:00 am34 °FSunny.2 mph87%29.88 "Hg16 mi
6:00 am35 °FPassing clouds.10 mph80%29.91 "Hg1 mi
5:00 am36 °FPassing clouds.2 mph79%29.92 "Hg22 mi
Weather by CustomWeather, © 2017

See weather overviewHow to use our weather pages